#timestamp,LO_Frequency,Hit,StdDev 
1608094815.2,286047004.7,N
1608094835.1,286047004.0,N
1608094836.0,286047004.0,N
1608094855.8,286047003.3,N
1608094875.7,286047001.7,N
1608094895.5,286047001.8,N
1608094915.3,286047001.3,N
1608094935.2,286047004.2,N
1608094955.0,286047004.4,N
1608094955.9,286047004.4,N
1608094975.8,286047000.8,N
1608094995.6,286047004.3,N
1608095015.4,286047001.1,N
1608095035.3,286047000.0,N
1608095055.1,286047001.9,N
1608095075.9,286047002.4,N
1608095095.7,286047002.7,N
1608095115.5,286046999.7,N
1608095135.4,286047002.1,N
1608095155.2,286047000.9,N
1608095175.0,286046994.1,N
1608095175.9,286046994.1,N
1608095195.8,286046993.5,N
1608095215.6,286046993.5,N
1608095235.5,286046996.9,N
1608095255.3,286046997.6,N
1608095275.1,286046996.6,N
1608095295.9,286046997.4,N
1608095315.7,286046996.6,N
1608095335.6,286046999.4,N
1608095355.4,286046997.2,N
1608095375.2,286047001.5,N
1608095395.1,286046995.6,N
1608095396.0,286046995.6,N
1608095415.8,286046995.3,N
1608095435.6,286046997.7,N
1608095455.5,286047002.2,N
1608095475.3,286047007.6,N
1608095495.2,286047009.5,N
1608095515.9,286047011.9,N
1608095535.7,286047015.4,Y
1608095555.6,286047016.1,P
1608095575.4,286047014.0,N
1608095595.3,286047011.0,N
1608095615.1,286047011.8,N
1608095616.0,286047011.8,N
1608095635.8,286047009.5,N
1608095655.7,286047006.7,N
1608095675.5,286047008.3,N
1608095695.3,286047008.4,N
1608095715.2,286047009.2,N
1608095735.0,286047008.6,N
1608095735.9,286047008.6,N
1608095755.8,286047007.2,N
1608095775.6,286047006.4,N
1608095795.4,286047004.1,N
1608095815.3,286047003.7,N
1608095835.1,286047009.1,N
1608095855.8,286047010.7,N
1608095875.7,286047013.8,Y
1608095895.5,286047008.5,P
1608095915.4,286047013.7,P
1608095935.2,286047013.6,P
1608095955.1,286047016.9,Y
1608095956.0,286047016.9,P
1608095975.8,286047007.9,N
1608095995.6,286047012.6,P
1608096015.5,286047019.0,Y
1608096035.3,286047013.9,P
1608096055.2,286047016.3,P
1608096075.9,286047019.1,P
1608096095.7,286047019.7,Y
1608096115.6,286047004.7,P
1608096135.4,286046999.9,N
1608096155.3,286046995.1,N
1608096175.1,286046993.7,N
1608096176.0,286046993.7,N
1608096195.8,286046992.0,N
1608096215.7,286046991.4,N
1608096235.5,286046989.3,N
1608096255.4,286046988.6,N
1608096275.2,286046992.4,N
1608096295.0,286046996.0,N
1608096295.9,286046996.0,N
1608096315.8,286046998.8,N
1608096335.6,286047004.3,N
1608096355.4,286047008.5,N
1608096375.3,286047011.1,N
1608096395.1,286047011.5,N
1608096415.9,286047010.9,N
1608096435.7,286047015.6,N
1608096455.6,286047014.4,N
1608096475.4,286047011.4,N
1608096495.3,286047015.2,N
1608096515.1,286047020.2,N
1608096535.8,286047020.4,N
1608096555.7,286047018.8,N
1608096575.5,286047014.7,N
1608096595.4,286047015.0,N
1608096615.2,286047006.2,N
1608096635.0,286047002.9,N
1608096635.9,286047002.9,N
1608096655.8,286047000.5,N
1608096675.6,286047000.3,N
1608096695.4,286047002.7,N
1608096715.3,286046999.9,N
1608096735.1,286046999.7,N
1608096755.9,286047002.2,N
1608096775.7,286046997.3,N
1608096795.5,286046984.4,N
1608096815.4,286046970.7,Y
1608096835.2,286046962.8,P
1608096855.0,286046957.0,N
1608096856.0,286046957.0,N
1608096875.8,286046953.7,N
1608096895.6,286046955.1,N
1608096915.5,286046952.7,N
1608096935.3,286046949.0,N
1608096955.1,286046952.0,N
1608096975.9,286046956.5,N
1608096995.7,286046957.1,N
1608097015.6,286046958.6,N
1608097035.4,286046958.4,N
1608097055.2,286046962.6,N
1608097075.1,286046966.5,N
1608097076.0,286046966.5,N
1608097095.8,286046967.8,N
1608097115.6,286046971.3,N
1608097135.5,286046972.4,N
1608097155.3,286046973.0,N
1608097175.2,286046975.2,N
1608097225.9,286046972.0,E
1608097235.8,286046982.2,N
1608097255.7,286047003.7,P
1608097275.5,286047001.8,N
1608097295.4,286047003.6,N
1608097315.2,286047000.5,N
1608097335.0,286046997.3,N
1608097335.9,286046997.3,N
1608097355.8,286046995.8,N
1608097375.6,286046994.6,N
1608097395.4,286046988.6,N
1608097415.3,286046991.7,N
1608097435.1,286046986.0,N
1608097455.9,286046983.2,N
1608097475.7,286046977.3,Y
1608097495.5,286046985.1,P
1608097515.4,286046982.1,P
1608097535.2,286046986.4,N
1608097555.0,286046991.0,N
1608097555.9,286046991.0,N
1608097575.8,286046997.5,N
1608097595.6,286046999.1,N
1608097615.5,286047001.2,N
1608097635.3,286046999.1,N
1608097655.1,286046997.8,N
1608097675.9,286046993.9,N
1608097695.7,286046994.6,N
1608097715.6,286046992.2,N
1608097735.4,286046989.1,N
1608097755.2,286046987.0,N
1608097775.1,286046985.9,N
1608097776.0,286046985.9,N
1608097795.8,286046986.4,N
1608097815.7,286046984.7,N
1608097835.5,286046981.4,Y
1608097855.3,286046989.2,P
1608097875.2,286046990.3,P
1608097895.0,286046987.6,P
1608097895.9,286046987.6,Y
1608097915.8,286046999.5,P
1608097935.6,286046998.4,N
1608097955.4,286047000.7,N
1608097975.3,286046999.6,N
1608097995.1,286046995.1,N
1608098015.8,286046997.5,N
1608098035.7,286046996.9,N
1608098055.5,286046993.7,N
1608098075.4,286046993.9,N
1608098095.2,286046996.3,N
1608098115.0,286046992.4,N
1608098115.9,286046992.4,N
1608098135.8,286046990.2,Y
1608098155.6,286046996.0,P
1608098175.4,286046999.0,P
1608098195.3,286047002.1,N
1608098215.1,286047006.8,N
1608098235.9,286047003.0,N
1608098255.7,286047000.2,N
1608098275.5,286046998.3,N
1608098295.4,286047002.7,N
1608098315.2,286047000.0,N
1608098335.0,286047000.8,N
1608098336.0,286047000.8,N
1608098355.8,286047003.8,N
1608098375.6,286047001.7,N
1608098395.5,286047002.5,N
